Home   Weather   Fauske   Past weeks

Flag for Norway Past Weather in Fauske, Norway — Yesterday and Last 2 Weeks

Now
37 °F

Passing clouds.


Feels Like: 26 °F
Forecast: 23 / 39 °F
Wind: 23 mph from Northwest

Location: Bodo Vi

Current Time: Dec 8, 2016 at 9:07:56 pm

Latest Report: Dec 8, 2016 at 8:20 pm


Visibility: N/A

Pressure: 29.47 "Hg

Humidity: 87%

Dew Point: 34 °F

Location of FauskeLocation

Past Weather in Fauske — Graph

°F

Fauske Temperature Yesterday

Maximum temperature yesterday: 45 °F (at 12:50 am)
Minimum temperature yesterday: 39 °F (at 7:50 pm)
Average temperature yesterday: 42 °F

High & Low Weather Summary for the Past Weeks

 TemperatureHumidityPressure
High46 °F (Nov 29, 10:20 am)100% (Nov 23, 7:20 pm)30.21 "Hg (Nov 23, 7:20 pm)
Low25 °F (Dec 3, 12:50 pm)41% (Nov 27, 5:50 am)29.12 "Hg (Nov 29, 10:50 pm)
Average37 °F85%29.68 "Hg
* Reported Nov 23 7:20 pm — Dec 8 7:50 pm, Fauske, Weather by CustomWeather, © 2016

Note: Actual official high and low records may vary slightly from our data, if they occured in-between our weather recording intervals... More about our weather records

Advertising

Fauske Weather History for the Previous 24 Hours

Scroll right to see more
 ConditionsComfort  
Time TempWeatherWind HumidityBarometerVisibility
7:50 pm
Thu, Dec 8
37 °FPassing clouds.18 mph81%29.47 "HgN/A
7:20 pm39 °FPassing clouds.21 mph75%29.47 "HgN/A
6:50 pm39 °FPassing clouds.20 mph75%29.47 "HgN/A
6:20 pm39 °FPassing clouds.21 mph81%29.47 "HgN/A
5:50 pm39 °FPartly cloudy.21 mph75%29.47 "HgN/A
5:20 pm39 °FScattered showers. Partly cloudy.22 mph81%29.47 "HgN/A
4:50 pm39 °FPartly cloudy.20 mph81%29.47 "HgN/A
4:20 pm37 °FSprinkles. Partly cloudy.18 mph87%29.47 "HgN/A
3:50 pm39 °FSprinkles. Partly cloudy.20 mph81%29.47 "HgN/A
3:20 pm39 °FScattered showers. Partly cloudy.18 mph87%29.45 "HgN/A
2:50 pm39 °FScattered showers. Partly cloudy.20 mph81%29.45 "HgN/A
2:20 pm39 °FSprinkles. Partly cloudy.22 mph81%29.45 "HgN/A
1:50 pm39 °FPassing clouds.20 mph75%29.42 "HgN/A
1:20 pm39 °FPartly cloudy.20 mph81%29.42 "HgN/A
12:50 pm41 °FBroken clouds.17 mph76%29.42 "HgN/A
12:20 pm41 °FBroken clouds.16 mph87%29.39 "HgN/A
11:50 am39 °FBroken clouds.10 mph93%29.39 "HgN/A
11:20 am37 °FBroken clouds.7 mph100%29.39 "HgN/A
10:50 am37 °FPassing clouds.3 mph100%29.39 "HgN/A
10:20 am37 °FPartly cloudy.2 mph100%29.39 "HgN/A
9:50 am37 °FPartly cloudy.3 mph100%29.39 "HgN/A
9:20 am37 °FSprinkles. Partly cloudy.3 mph100%29.36 "HgN/A
8:50 am37 °FPartly cloudy.3 mph100%29.36 "HgN/A
8:20 am37 °FPartly cloudy.3 mph100%29.36 "HgN/A
7:50 am37 °FPartly cloudy.7 mph100%29.36 "HgN/A
7:20 am37 °FPartly cloudy.9 mph100%29.36 "HgN/A
6:50 am37 °FPartly cloudy.9 mph100%29.36 "HgN/A
6:20 am37 °FPartly cloudy.9 mph100%29.36 "HgN/A
5:50 am37 °FMostly cloudy.9 mph100%29.36 "HgN/A
5:20 am37 °FPartly cloudy.9 mph100%29.36 "HgN/A
4:50 am37 °FPartly cloudy.8 mph100%29.36 "HgN/A
3:50 am37 °FPartly cloudy.9 mph100%29.39 "HgN/A
2:50 am37 °FLight rain. Partly cloudy.10 mph100%29.39 "Hg5 mi
1:50 am39 °FPartly cloudy.7 mph100%29.42 "Hg5 mi
12:50 am39 °FDrizzle. Fog.7 mph93%29.45 "Hg2 mi
11:50 pm
Wed, Dec 7
41 °FPartly cloudy.8 mph93%29.45 "HgN/A
11:20 pm41 °FPartly cloudy.8 mph93%29.45 "HgN/A
10:50 pm41 °FPartly cloudy.8 mph93%29.45 "HgN/A
10:20 pm41 °FPartly cloudy.9 mph93%29.45 "HgN/A
9:50 pm41 °FPassing clouds.7 mph93%29.47 "HgN/A
9:20 pm41 °FPassing clouds.9 mph93%29.47 "HgN/A
Weather by CustomWeather, © 2016

See weather overviewHow to use our weather pages